Location: Albuquerque Trailhead
(34.7934°N, 106.3736°W)
Time: 04:58:42
(UTC+00:00)

Cosmos 1953 - Pass Details

Date: 20 June 2021
Orbit: 538 x 557 km, 82.5° (Epoch: 29 July)

Event Time Altitude Azimuth Distance (km) Brightness Sun altitude
Rises 03:16:53 0° 13° (NNE) 2,745 6.2 -10.2°
Reaches altitude 10° 03:19:47 10° 36° (NE) 1,844 5.0 -10.7°
Maximum altitude 03:22:21 16° 75° (ENE) 1,487 4.2 -11.1°
Enters shadow 03:23:55 13° 102° (ESE) 1,628 4.2 -11.3°
